Location: Gälforsberget
(66.6500°N, 22.4167°E)
Time: 21:02:13
(UTC+00:00)

Cosmos 1862 - Pass Details

Date: 11 April 2026
Orbit: 465 x 478 km, 82.5° (Epoch: 11 May)

Event Time Altitude Azimuth Distance (km) Brightness Sun altitude
Rises 20:08:59 0° 341° (NNW) 2,558 8.4 -10.5°
Reaches altitude 10° 20:11:09 10° 347° (NNW) 1,673 7.0 -10.6°
Maximum altitude 20:14:42 47° 63° (ENE) 646 3.6 -10.8°
Enters shadow 20:17:20 16° 133° (SE) 1,310 4.6 -11.0°
